Погода в Солёном

Россия / Республика Калмыкия     46°13′26″N   42°32′34″E
темп.,
°C
ветер,
м/с
пор.,
м/с
влажн.,
%
обл.,
%
осадки,
мм/ч
давл.,
гПа
погр.,
м
28 февраля, вс
вс2800:00+3зсз4796100 1.3 1014198
03:00+2зсз3695100 1.3 1014153
06:00+2з3595100 0.1 1015120
09:00+2сз4592100 0.1 1016340
12:00+4ссз347798 0.0 1017630
15:00+5сз457399 0.1 1017806
18:00+4сз3677100 0.1 1018269
21:00+3сз238096 0.1 102088
1 марта, пн
пн100:00+2сз1285100 0.1 102036
03:00+2зюз349197 0.1 1021102
06:00+1зюз3597100 0.0 1022290
09:00+2з4588100 0.1 1024516
12:00+3з3584100 0.1 1025558
15:00+3сз239299 0.4 1025337
18:00+2сз118999 0.3 102680
21:00+1зсз119296 0.3 102854
2 марта, вт
вт200:00+1зсз129385 0.0 1028135
03:00+1з239793 0.1 1028210
06:000зюз249494 0.1 1028115
09:00+2зюз468076 0.1 1028488
12:00+5з686340 0.0 10261236
15:00+6з8115759 0.0 10241491
18:00+4з7116664 0.0 1022986
21:00+3з7157482 0.0 10201045
3 марта, ср
ср300:00+2з91668100 0.0 1018751
03:00+2зюз101875100 0.0 1016985
06:00+3зюз122080100 0.1 10131253
09:00+2з121895100 0.8 10131143
12:00+2зсз81395100 1.7 1014717
15:00+2сз71196100 2.2 1017675
18:00+3сз5107798 0.3 1019701
21:000зсз478262 0.3 1023224
4 марта, чт
чт400:000з598494 0.1 1024304
03:00−1зсз488864 0.1 1024283
06:00−1з47870 0.0 1025289
09:00+1з58710 0.0 1026716
12:00+4з57460 0.0 1025866
15:00+6з57470 0.0 10231102
18:00+3зюз47660 0.0 1022168
21:00+1юз47740 0.0 1022169